Regional Weather Roundup
Issued by NWS

Home | Current Version | Previous Version | Graphics & Text | Print | Product List | Glossary On
Versions: 1 2 3 4 5 6 7 8 9 10 11 12 13 14 15 16 17 18 19 20 21 22 23 24 25 26 27 28 29 30 31 32 33 34 35 36 37 38 39 40 41 42 43 44 45 46 47 48 49 50
000
ASUS43 KLMK 161702
RWRKY
KENTUCKY REGIONAL WEATHER ROUNDUP
NATIONAL WEATHER SERVICE LOUISVILLE KY
100 PM EDT MON OCT 16 2017

NOTE "FAIR" INDICATES FEW OR NO CLOUDS BELOW 12,000 FEET
WITH NO SIGNIFICANT WEATHER AND/OR OBSTRUCTIONS TO VISIBILITY.

KYZ001>023-026-027-061>063-070>075-161800-
WESTERN AND SOUTH CENTRAL KENTUCKY

CITY           SKY/WX    TMP DP  RH WIND       PRES   REMARKS
PADUCAH        SUNNY     60  40  47 NE8       30.39S
HENDERSON      SUNNY     59  42  53 VRB7      30.39F
OWENSBORO      MOSUNNY   59  41  51 NE8       30.37F
HOPKINSVILLE   MOSUNNY   60  43  54 N10G17    30.36S
BOWLING GREEN  MOSUNNY   62  44  51 NE10G17   30.35S
GLASGOW        NOT AVBL
$$

KYZ024-025-028>034-038-045-046-053-161800-
NORTH CENTRAL KENTUCKY

CITY           SKY/WX    TMP DP  RH WIND       PRES   REMARKS
LOUISVILLE/SDF MOSUNNY   61  42  49 N7        30.35S
LOUISVILLE/LOU MOSUNNY   61  44  53 VRB6      30.36S
FORT KNOX      MOSUNNY   59  42  53 N13       30.33F
$$

KYZ035>037-039>044-047>052-055>060-089>105-161800-
NORTHEAST KENTUCKY

CITY           SKY/WX    TMP DP  RH WIND       PRES   REMARKS
LEXINGTON      PTSUNNY   59  42  53 N8        30.33F
COVINGTON      MOSUNNY   59  44  57 N10       30.33R
FRANKFORT      PTSUNNY   58  40  51 N8        30.33S
$$

KYZ054-064>069-076>088-106>120-161800-
SOUTHEAST KENTUCKY

CITY           SKY/WX    TMP DP  RH WIND       PRES   REMARKS
JACKSON        PTSUNNY   58  40  51 VRB5      30.30S
LONDON         MOSUNNY   58  40  51 N12       30.31S
SOMERSET       NOT AVBL
MIDDLESBORO    PTSUNNY   58  43  57 NE10      30.29F
MONTICELLO     MOSUNNY   60  43  53 N10G23    30.34S
$$





USA.gov is the U.S. government's official web portal to all federal, state and local government web resources and services.